FREGAT DEB, 45820

Orbit data source: Space-Track

FREGAT DEB, 45820 is space debris in LEO originally from a launch on Mon, 18 Jul 2011 UTC launched from the Tyuratam Missile And Space Complex (TTMTR). Debris objects in space refer to the collection of defunct objects orbiting the Earth. Examples of debris include non-operational satellites, rocket bodies, and fragments generated from explosions, collisions, or faulty payload assembly.

Loading next visibility...
Identifier
45820, 2011-037BE
Orbit
LEO
Country
Flag of CISCIS
Related business
Manufacturer
Lavochkin
Mission
Spacecraft
Bus & Motor
Unknown
Mass
Unknown
Launch date (UTC)
2011-07-18 (15 years ago)
Launch vehicle
Unknown
Launch site
Tyuratam Missile And Space Complex (TTMTR)
Object type
Payload
Rocket body
Debris
Shape & HBR
Unknown shape, 0.1 m
Radar Cross Section
Small (<0.1 m²)

Expand to show TLE details & history
Last TLE update: 19 hours ago

TLE from 19 hours ago
0 FREGAT DEB
1 45820U 11037BE  26123.13175837  .00007457  00000-0  43888-2 0  9996
2 45820  51.5288 165.8333 1503994 292.6952  52.1945 11.76064120248205
Epoch: 2026-05-03T03:09Z
TLE epoch observation values (Epoch: 2026-05-03T03:09:43.923Z)
Latitude
-0.00002°
Longitude
-102.63943°
Altitude
1,169.441 km
Speed
7.54 km/s
True Right ascension
11h 03m 19s
True Declination
0° 00' 00"
Sunlit
Object was in full shadow at epoch
Visualization orbit readout
Latitude
Unknown
Longitude
Unknown
Altitude
Unknown
Speed
Unknown
Apparent Right ascension
Unknown
Apparent Declination
Unknown
Sunlit
N/A
Visualization observer readout
Local Sidereal Time
05:56:24
Azimuth
Unknown
Elevation
Unknown
Doppler factor
Unknown
Orbital elements
Apogee altitude
3,018.822 km
Perigee altitude
561.767 km
Semi-major axis
8,168.432 km
Eccentricity
0.1504
Inclination
51.5288°
RAAN
165.8333°
Arg. of periapsis
292.6952°
True anomaly
67.39185°
Mean anomaly
52.1945°
Eccentric anomaly
59.62922°
Mean motion
2.93992 °/min
Orbital period
122.45 mins
BSTAR
0.0043888
Loading maneuver chart data...
Computing Atmospheric mass density...
Loading historical data...
Loading historical data...
Loading historical data...
Loading historical data...
Loading historical data...
Loading historical data...
Loading historical data...

Documentation

Showing up to 5 results
|